Location: Most
(50.5133°N, 13.6207°E)
Time: 01:44:00
(UTC+02:00)

ISS - Pass Details

Date: 17 September 2021
Orbit: 417 x 423 km, 51.6° (Epoch: 22 October)

Event Time Altitude Azimuth Distance (km) Brightness Sun altitude
Rises 21:32:05 0° 238° (WSW) 2,357 0.4 -21.5°
Reaches altitude 10° 21:34:11 10° 234° (SW) 1,497 -0.7 -21.7°
Enters shadow 21:35:35 22° 226° (SW) 962 -1.8 -21.9°
